Overview Statistics Trail Chart Weather Telemetry Raw packets
 

This is the latest recevied weather packets stored in our database for station/object KC1BRV. If no packets are shown the sender has not sent any weather packets the latest 10 day(s).

<< 7 8 9 10 11 12 13 >>
Time Temp. Humidity Pressure Rain* Wind** Luminosity Snow
1788567807 20.56° C 83% 1010.8 hPa 0 mm - 0 W/m² -
1788567502 20.56° C 83% 1010.7 hPa 0 mm - 0 W/m² -
1788567201 21.11° C 83% 1010.8 hPa 0 mm - 0 W/m² -
1788566897 21.11° C 82% 1010.6 hPa 0 mm - 0 W/m² -
1788566592 21.11° C 82% 1010.5 hPa 0 mm - 0 W/m² -
1788566287 21.11° C 82% 1010.6 hPa 0 mm - 0 W/m² -
1788565983 21.11° C 82% 1010.5 hPa 0 mm - 0 W/m² -
1788565677 21.67° C 81% 1010.4 hPa 0 mm - 0 W/m² -
1788565371 21.67° C 81% 1010.5 hPa 0 mm - 0 W/m² -
1788565067 21.67° C 81% 1010.3 hPa 0 mm - 0 W/m² -
1788564764 21.67° C 82% 1010.4 hPa 0 mm - 0 W/m² -
1788564460 22.22° C 80% 1010.3 hPa 0 mm - 0 W/m² -
1788564156 22.22° C 79% 1010.5 hPa 0 mm - 1 W/m² -
1788563851 22.78° C 77% 1010.1 hPa 0 mm - 1 W/m² -
1788563541 22.78° C 76% 1010.1 hPa 0 mm - 3 W/m² -
1788563240 22.78° C 75% 1010.2 hPa 0 mm - 4 W/m² -
1788562935 22.78° C 76% 1010.3 hPa 0 mm - 7 W/m² -
1788562634 23.33° C 74% 1010.2 hPa 0 mm - 9 W/m² -
1788562328 23.33° C 74% 1010.1 hPa 0 mm - 11 W/m² -
1788562027 23.89° C 74% 1010.2 hPa 0 mm - 13 W/m² -
1788561723 23.89° C 72% 1010.1 hPa 0 mm - 14 W/m² -
1788561422 23.89° C 71% 1010.2 hPa 0 mm - 16 W/m² -
1788561118 24.44° C 71% 1010.1 hPa 0 mm - 21 W/m² -
1788560813 24.44° C 70% 1010 hPa 0 mm - 25 W/m² -
1788560509 24.44° C 69% 1010.2 hPa 0 mm - 31 W/m² -

* Rain latest hour (hover to see other rain measurements)
** Current wind speed in m/s (hover to see current wind gust speed)